Flag for U.S.A. Weather past 2 weeks in South Bend, Indiana, U.S.A.

Now
48 °F

More clouds than sun.


Feels Like: 43 °F
Forecast: 35 / 53 °F
Wind: 12 mph from Northwest

Location: Michiana Regional Airport

Current Time: Apr 27, 2015 at 11:33:15 AM

Latest Report: Apr 27, 2015 at 10:54 AM


Visibility: 10 mi

Pressure: 30.08 "Hg

Humidity: 61%

Dew point: 35 °F

Location of South BendLocation

Historic Weather in South Bend — Graph

°F

South Bend temperature yesterday

Maximum temperature yesterday: 56 °F (at 2:54 PM)
Minimum temperature yesterday: 36 °F (at 6:54 AM)
Average temperature yesterday: 46 °F

Past Weeks' High & Low Weather Summary

 TemperatureHumidityPressure
High78 °F (Apr 18, 2:54 PM)93% (Apr 19, 10:54 PM)30.30 "Hg (Apr 19, 10:54 PM)
Low29 °F (Apr 23, 6:54 AM)15% (Apr 24, 3:54 PM)29.24 "Hg (Apr 20, 1:54 AM)
Average51 °F55%29.94 "Hg
* Reported Apr 12 9:54 AM — Apr 27 9:54 AM, South Bend, Weather by CustomWeather, © 2015

Note: Actual official high and low records may vary slightly from our data, if they occured in-between our weather recording intervals... More about our weather records

Advertising

South Bend weather history for previous 24 hours

 ConditionsComfort  
Time TempWeatherWind HumidityBarometerVisibility
9:54 AM
Mon, Apr 27
46 °FScattered clouds.10 mph66%30.07 "Hg10 mi
8:54 AM43 °FSunny.14 mph71%30.05 "Hg10 mi
7:54 AM40 °FSunny.10 mph77%30.02 "Hg10 mi
6:54 AM37 °FClear.10 mph82%30.01 "Hg10 mi
5:54 AM38 °FClear.10 mph79%30.02 "Hg10 mi
4:54 AM38 °FClear.9 mph79%30.02 "Hg10 mi
3:54 AM37 °FClear.7 mph76%30.01 "Hg10 mi
2:54 AM40 °FClear.9 mph70%30.00 "Hg10 mi
1:54 AM40 °FClear.8 mph70%30.00 "Hg10 mi
12:54 AM40 °FClear.9 mph65%30.00 "Hg10 mi
11:54 PM
Sun, Apr 26
40 °FClear.8 mph60%29.99 "Hg10 mi
10:54 PM43 °FClear.10 mph51%29.99 "Hg10 mi
9:54 PM44 °FClear.10 mph43%29.98 "Hg10 mi
8:54 PM46 °FSunny.12 mph42%29.98 "Hg10 mi
7:54 PM49 °FSunny.14 mph38%29.98 "Hg10 mi
6:54 PM52 °FSunny.22 mph37%29.97 "Hg10 mi
5:54 PM54 °FSunny.21 mph38%29.96 "Hg10 mi
4:54 PM55 °FSunny.18 mph40%29.97 "Hg10 mi
3:54 PM55 °FSunny.18 mph40%29.97 "Hg10 mi
2:54 PM56 °FSunny.15 mph37%29.97 "Hg10 mi
1:54 PM55 °FPassing clouds.17 mph37%29.98 "Hg10 mi
12:54 PM54 °FPartly sunny.13 mph38%29.99 "Hg10 mi
11:54 AM54 °FPassing clouds.12 mph43%30.00 "Hg10 mi
Weather by CustomWeather, © 2015

See weather overviewHow to use our weather pages